This demonstration page uses our WeatherBlox Daily Observations layout. Learn more.

Hourly Observations for August 26, 2017

Temp ( °F °C ) Dew Point ( °F °C ) Humidity (%) Winds ( mph kmh ) Pressure ( in mb ) Visibility ( mi km ) Precip ( " mm )
12:15 am 00:15 Clear 71 21.8 62 16.8 73 73 S 14 22 29.94 1014 10 16.09344 0 0
12:35 am 00:35 Clear 71 21.6 63 17 75 75 S 13 20 29.94 1014 10 16.09344 0 0
12:55 am 00:55 Clear 71 21.5 63 17.1 76 76 S 14 22 29.97 1015 10 16.09344 0 0
1:15 am 01:15 Clear 70 21.3 63 17.2 78 78 S 14 22 29.97 1015 10 16.09344 0 0
1:35 am 01:35 Clear 70 21.1 63 17.1 78 78 S 12 19 29.97 1015 10 16.09344 0 0
1:55 am 01:55 Clear 69 20.7 63 17.3 81 81 S 12 19 29.97 1015 10 16.09344 0 0
2:15 am 02:15 Clear 69 20.3 64 17.5 84 84 S 10 17 29.97 1015 10 16.09344 0 0
2:35 am 02:35 Clear 68 20 64 17.5 86 86 S 10 17 30 1016 10 16.09344 0 0
2:55 am 02:55 Clear 67 19.5 64 17.5 88 88 S 8 13 30 1016 10 16.09344 0 0
3:15 am 03:15 Clear 67 19.3 64 17.5 89 89 S 8 13 30 1016 10 16.09344 0 0
3:35 am 03:35 Clear 66 19 63 17.3 90 90 S 7 11 30 1016 10 16.09344 0 0
3:55 am 03:55 Clear 65 18.6 63 17.2 92 92 S 6 9 30 1016 10 16.09344 0 0
4:15 am 04:15 Clear 65 18.6 63 17.2 92 92 S 8 13 30.03 1017 10 16.09344 0 0
4:35 am 04:35 Clear 65 18.5 63 17.1 92 92 S 8 13 30.03 1017 10 16.09344 0 0
4:55 am 04:55 Clear 65 18.5 63 17.2 92 92 S 7 11 30.03 1017 10 16.09344 0 0
5:15 am 05:15 Clear 65 18.3 63 17 92 92 S 7 11 30.03 1017 10 16.09344 0 0
5:35 am 05:35 Clear 65 18.1 63 17 93 93 S 6 9 30.03 1017 10 16.09344 0 0
5:55 am 05:55 Clear 64 18 62 16.8 93 93 S 8 13 30 1016 10 16.09344 0 0
6:15 am 06:15 Clear 64 18 62 16.8 93 93 S 7 11 30.03 1017 10 16.09344 0 0
6:35 am 06:35 Clear 64 18 63 17 94 94 S 7 11 30.03 1017 10 16.09344 0 0
6:55 am 06:55 Partly Cloudy 64 18 63 17 94 94 S 7 11 30.03 1017 10 16.09344 0 0
7:15 am 07:15 Partly Cloudy 64 18 63 17 94 94 S 8 13 30.03 1017 7 11.265408 0 0
7:35 am 07:35 Sunny 64 18 63 17 94 94 S 9 15 30.03 1017 7 11.265408 0 0
7:55 am 07:55 Mostly Cloudy 65 18.2 63 17.3 95 95 S 10 17 30.03 1017 7 11.265408 0 0
8:15 am 08:15 Mostly Cloudy 66 18.8 64 17.7 93 93 S 10 17 30.03 1017 10 16.09344 0 0
8:35 am 08:35 Cloudy 66 18.8 64 17.7 93 93 S 12 19 30.03 1017 7 11.265408 0 0
8:55 am 08:55 Cloudy 66 19.1 64 18 93 93 S 9 15 30.03 1017 7 11.265408 0 0
9:15 am 09:15 Cloudy 67 19.6 65 18.2 92 92 S 10 17 30.03 1017 10 16.09344 0 0
9:35 am 09:35 Cloudy 68 19.8 65 18.1 90 90 SSW 14 22 30.03 1017 10 16.09344 0 0
9:55 am 09:55 Cloudy 68 19.9 65 18.2 90 90 SSW 14 22 30.03 1017 7 11.265408 0 0
10:15 am 10:15 Cloudy 69 20.6 65 18.3 87 87 SW 10 17 30 1016 10 16.09344 0 0
10:35 am 10:35 Cloudy 69 20.8 65 18.5 87 87 SW 9 15 30 1016 10 16.09344 0 0
10:55 am 10:55 Cloudy 72 22 66 18.8 82 82 SW 8 13 30.03 1017 10 16.09344 0 0
11:15 am 11:15 Cloudy 72 22.2 66 18.9 82 82 SW 9 15 30.03 1017 10 16.09344 0 0
11:35 am 11:35 Mostly Cloudy 75 23.7 67 19.3 76 76 SW 7 11 30.03 1017 10 16.09344 0 0
11:55 am 11:55 Mostly Cloudy 76 24.2 67 19.2 74 74 SSW 5 7 30.03 1017 10 16.09344 0 0
12:15 pm 12:15 Partly Cloudy 77 25 67 19.3 71 71 SSW 6 9 29.97 1015 10 16.09344 0 0
12:35 pm 12:35 Partly Cloudy 77 25.1 67 19.2 70 70 S 6 9 29.97 1015 10 16.09344 0 0
12:55 pm 12:55 Sunny 78 25.6 67 19.4 69 69 Calm 29.97 1015 10 16.09344 0 0
1:15 pm 13:15 Sunny 78 25.8 67 19.5 68 68 Calm 29.97 1015 10 16.09344 0 0
1:35 pm 13:35 Partly Cloudy 80 26.8 67 19.6 65 65 S 7 11 29.97 1015 10 16.09344 0 0
1:55 pm 13:55 Mostly Cloudy 81 27.1 67 19.7 64 64 WSW 5 7 29.97 1015 10 16.09344 0 0
2:15 pm 14:15 Partly Cloudy 81 27.2 67 19.4 62 62 WSW 3 6 29.97 1015 10 16.09344 0 0
2:35 pm 14:35 Sunny 82 27.7 67 19.3 60 60 SSW 5 7 29.97 1015 10 16.09344 0 0
2:55 pm 14:55 Sunny 82 28 66 19.1 58 58 S 8 13 29.91 1013 10 16.09344 0 0
3:15 pm 15:15 Sunny 82 27.9 65 18.5 57 57 SW 7 11 29.91 1013 10 16.09344 0 0
3:35 pm 15:35 Sunny 82 27.8 65 18.6 57 57 SSW 5 7 29.91 1013 10 16.09344 0 0
3:55 pm 15:55 Sunny with Thunderstorms 83 28.1 65 18.5 56 56 SSW 6 9 29.91 1013 10 16.09344 0 0
4:15 pm 16:15 Sunny 83 28.5 65 18.6 55 55 Calm 29.91 1013 10 16.09344 0 0
4:35 pm 16:35 Sunny 83 28.4 66 19 57 57 Calm 29.91 1013 10 16.09344 0 0
4:55 pm 16:55 Sunny 83 28.3 66 18.8 56 56 SE 5 7 29.91 1013 10 16.09344 0 0
5:15 pm 17:15 Sunny 85 29.2 65 18.5 53 53 SSE 3 6 29.91 1013 10 16.09344 0 0
5:35 pm 17:35 Partly Cloudy 83 28.6 65 18.6 55 55 ESE 3 6 29.91 1013 10 16.09344 0 0
5:55 pm 17:55 Partly Cloudy 84 29 63 17.4 50 50 SSE 6 9 29.91 1013 10 16.09344 0 0
6:15 pm 18:15 Sunny 84 29.1 64 17.5 50 50 SSE 7 11 29.91 1013 10 16.09344 0 0
6:35 pm 18:35 Mostly Cloudy 83 28.6 66 19.1 56 56 SSE 6 9 29.91 1013 10 16.09344 0 0
6:55 pm 18:55 Mostly Cloudy 82 28 67 19.3 59 59 SE 5 7 29.91 1013 10 16.09344 0 0
7:15 pm 19:15 Mostly Cloudy 82 27.6 66 19.1 60 60 SSE 5 7 29.88 1012 10 16.09344 0 0
7:35 pm 19:35 Partly Cloudy 81 27.3 67 19.7 63 63 SE 6 9 29.88 1012 10 16.09344 0 0
7:55 pm 19:55 Partly Cloudy 79 26 68 20.1 70 70 ESE 3 6 29.91 1013 10 16.09344 0 0
8:15 pm 20:15 Sunny 77 25.1 67 19.2 70 70 E 3 6 29.94 1014 10 16.09344 0 0
8:35 pm 20:35 Clear 74 23.3 68 20 82 82 E 7 11 29.97 1015 10 16.09344 0 0
8:55 pm 20:55 Clear 73 22.6 68 19.9 85 85 E 5 7 29.97 1015 10 16.09344 0 0
9:15 pm 21:15 Clear 72 22.1 68 19.8 87 87 E 7 11 29.97 1015 10 16.09344 0 0
9:35 pm 21:35 Clear 73 22.5 68 20 86 86 ESE 7 11 29.97 1015 10 16.09344 0 0
9:55 pm 21:55 Clear 71 21.5 67 19.7 90 90 ESE 7 11 29.97 1015 10 16.09344 0 0
10:15 pm 22:15 Clear 71 21.5 67 19.7 90 90 ESE 7 11 29.97 1015 10 16.09344 0 0
10:35 pm 22:35 Clear 70 21 67 19.2 90 90 ESE 6 9 29.97 1015 10 16.09344 0 0
10:55 pm 22:55 Clear 71 21.4 66 18.8 85 85 SE 7 11 29.97 1015 10 16.09344 0 0
11:15 pm 23:15 Clear 70 21.2 65 18.5 85 85 SE 7 11 29.97 1015 10 16.09344 0 0
11:35 pm 23:35 Clear 70 21 64 18 83 83 SE 7 11 29.97 1015 10 16.09344 0 0
11:55 pm 23:55 Clear 69 20.5 64 18 86 86 SE 8 13 29.97 1015 10 16.09344 0 0

Powered by AerisWeather